Time,TemperatureF,DewpointF,PressureIn,WindDirection,WindDirectionDegrees,WindSpeedMPH,WindSpeedGustMPH,Humidity,HourlyPrecipIn,Conditions,Clouds,dailyrainin,SoftwareType,DateUTC
2013-09-11 00:00:00,71.1,67.7,30.20,WSW,248,0.0,1.0,89,0.00,,---,0.00,VWS V14.01,2013-09-11 04:00:00,
2013-09-11 00:01:00,71.1,67.7,30.20,WSW,248,0.0,0.0,89,0.00,,---,0.00,VWS V14.01,2013-09-11 04:01:00,
2013-09-11 00:02:00,71.1,67.7,30.20,WSW,248,0.0,0.0,89,0.00,,---,0.00,VWS V14.01,2013-09-11 04:02:00,
2013-09-11 00:07:00,71.2,67.8,30.19,WSW,248,0.0,0.0,89,0.00,,---,0.00,VWS V14.01,2013-09-11 04:07:00,
2013-09-11 00:12:00,71.2,67.8,30.19,WSW,248,0.0,1.0,89,0.00,,---,0.00,VWS V14.01,2013-09-11 04:12:00,
2013-09-11 00:17:00,71.2,67.8,30.20,WSW,248,0.0,1.0,89,0.00,,---,0.00,VWS V14.01,2013-09-11 04:17:00,
2013-09-11 00:22:00,71.1,67.7,30.19,WSW,248,0.0,1.0,89,0.00,,---,0.00,VWS V14.01,2013-09-11 04:22:00,
2013-09-11 00:27:00,71.1,67.7,30.19,WSW,248,0.0,1.0,89,0.00,,---,0.00,VWS V14.01,2013-09-11 04:27:00,
2013-09-11 00:30:00,71.0,67.6,30.19,WSW,248,0.0,1.0,89,0.00,,---,0.00,VWS V14.01,2013-09-11 04:30:00,
2013-09-11 00:32:00,71.0,67.6,30.19,WSW,248,0.0,0.0,89,0.00,,---,0.00,VWS V14.01,2013-09-11 04:32:00,
2013-09-11 00:37:00,71.0,67.6,30.19,WSW,248,0.0,0.0,89,0.00,,---,0.00,VWS V14.01,2013-09-11 04:37:00,
2013-09-11 00:42:00,70.9,67.5,30.19,WSW,248,0.0,0.0,89,0.00,,---,0.00,VWS V14.01,2013-09-11 04:42:00,
2013-09-11 00:47:00,70.8,67.4,30.19,WSW,248,0.0,0.0,89,0.00,,---,0.00,VWS V14.01,2013-09-11 04:47:00,
2013-09-11 00:52:00,70.8,67.7,30.19,WSW,248,0.0,0.0,90,0.00,,---,0.00,VWS V14.01,2013-09-11 04:52:00,
2013-09-11 00:57:00,70.8,67.7,30.19,WSW,248,0.0,0.0,90,0.00,,---,0.00,VWS V14.01,2013-09-11 04:57:00,
2013-09-11 01:00:00,70.8,67.7,30.19,WSW,248,0.0,0.0,90,0.00,,---,0.00,VWS V14.01,2013-09-11 05:00:00,
2013-09-11 01:02:00,70.8,67.7,30.19,WSW,248,0.0,0.0,90,0.00,,---,0.00,VWS V14.01,2013-09-11 05:02:00,
2013-09-11 01:07:00,70.8,67.7,30.19,WSW,248,0.0,0.0,90,0.00,,---,0.00,VWS V14.01,2013-09-11 05:07:00,
2013-09-11 01:12:00,70.9,67.8,30.19,WSW,248,0.0,0.0,90,0.00,,---,0.00,VWS V14.01,2013-09-11 05:12:00,
2013-09-11 01:17:00,71.0,67.9,30.19,WSW,248,0.0,1.0,90,0.00,,---,0.00,VWS V14.01,2013-09-11 05:17:00,
2013-09-11 01:22:00,70.9,67.8,30.19,WSW,248,0.0,1.0,90,0.00,,---,0.00,VWS V14.01,2013-09-11 05:22:00,
2013-09-11 01:27:00,70.9,67.8,30.19,WSW,248,0.0,1.0,90,0.00,,---,0.00,VWS V14.01,2013-09-11 05:27:00,
2013-09-11 01:30:00,70.9,67.8,30.19,WSW,248,0.0,1.0,90,0.00,,---,0.00,VWS V14.01,2013-09-11 05:30:00,
2013-09-11 01:32:00,70.9,67.8,30.19,WSW,248,0.0,0.0,90,0.00,,---,0.00,VWS V14.01,2013-09-11 05:32:00,
2013-09-11 01:37:00,70.9,67.8,30.18,WSW,248,0.0,0.0,90,0.00,,---,0.00,VWS V14.01,2013-09-11 05:37:00,
2013-09-11 01:42:00,70.9,67.8,30.18,WSW,248,0.0,0.0,90,0.00,,---,0.00,VWS V14.01,2013-09-11 05:42:00,
2013-09-11 01:48:00,70.9,67.8,30.18,WSW,248,0.0,0.0,90,0.00,,---,0.00,VWS V14.01,2013-09-11 05:48:00,
2013-09-11 01:53:00,70.9,67.8,30.18,WSW,248,0.0,0.0,90,0.00,,---,0.00,VWS V14.01,2013-09-11 05:53:00,
2013-09-11 01:58:00,70.9,67.8,30.18,WSW,248,0.0,0.0,90,0.00,,---,0.00,VWS V14.01,2013-09-11 05:58:00,
2013-09-11 02:00:00,70.9,67.8,30.18,WSW,248,0.0,0.0,90,0.00,,---,0.00,VWS V14.01,2013-09-11 06:00:00,
2013-09-11 02:03:00,71.0,67.6,30.18,WSW,248,0.0,0.0,89,0.00,,---,0.00,VWS V14.01,2013-09-11 06:03:00,
2013-09-11 02:08:00,71.0,67.6,30.18,WSW,248,0.0,0.0,89,0.00,,---,0.00,VWS V14.01,2013-09-11 06:08:00,
2013-09-11 02:13:00,71.0,67.6,30.18,WSW,248,0.0,0.0,89,0.00,,---,0.00,VWS V14.01,2013-09-11 06:13:00,
2013-09-11 02:18:00,71.0,67.6,30.18,WSW,248,0.0,0.0,89,0.00,,---,0.00,VWS V14.01,2013-09-11 06:18:00,
2013-09-11 02:23:00,70.9,67.5,30.18,WSW,248,0.0,0.0,89,0.00,,---,0.00,VWS V14.01,2013-09-11 06:23:00,
2013-09-11 02:28:00,70.9,67.5,30.18,WSW,248,0.0,0.0,89,0.00,,---,0.00,VWS V14.01,2013-09-11 06:28:00,
2013-09-11 02:30:00,70.9,67.5,30.18,WSW,248,0.0,0.0,89,0.00,,---,0.00,VWS V14.01,2013-09-11 06:30:00,
2013-09-11 02:33:00,70.8,67.4,30.18,WSW,248,0.0,0.0,89,0.00,,---,0.00,VWS V14.01,2013-09-11 06:33:00,
2013-09-11 02:38:00,70.7,67.3,30.18,WSW,248,0.0,0.0,89,0.00,,---,0.00,VWS V14.01,2013-09-11 06:38:00,
2013-09-11 02:43:00,70.6,67.2,30.18,WSW,248,0.0,0.0,89,0.00,,---,0.00,VWS V14.01,2013-09-11 06:43:00,
2013-09-11 02:48:00,70.6,67.5,30.17,WSW,248,0.0,0.0,90,0.00,,---,0.00,VWS V14.01,2013-09-11 06:48:00,
2013-09-11 02:53:00,70.5,67.4,30.17,WSW,248,0.0,0.0,90,0.00,,---,0.00,VWS V14.01,2013-09-11 06:53:00,
2013-09-11 02:58:00,70.5,67.4,30.18,WSW,248,0.0,0.0,90,0.00,,---,0.00,VWS V14.01,2013-09-11 06:58:00,
2013-09-11 03:00:00,70.5,67.4,30.18,WSW,248,0.0,0.0,90,0.00,,---,0.00,VWS V14.01,2013-09-11 07:00:00,
2013-09-11 03:03:00,70.5,67.4,30.18,WSW,248,0.0,0.0,90,0.00,,---,0.00,VWS V14.01,2013-09-11 07:03:00,
2013-09-11 03:08:00,70.4,67.3,30.17,WSW,248,0.0,0.0,90,0.00,,---,0.00,VWS V14.01,2013-09-11 07:08:00,
2013-09-11 03:13:00,70.4,67.3,30.17,WSW,248,0.0,0.0,90,0.00,,---,0.00,VWS V14.01,2013-09-11 07:13:00,
2013-09-11 03:18:00,70.3,67.2,30.17,WSW,248,0.0,0.0,90,0.00,,---,0.00,VWS V14.01,2013-09-11 07:18:00,
2013-09-11 03:23:00,70.3,67.2,30.17,WSW,248,0.0,0.0,90,0.00,,---,0.00,VWS V14.01,2013-09-11 07:23:00,
2013-09-11 03:28:00,70.2,67.1,30.17,WSW,248,0.0,0.0,90,0.00,,---,0.00,VWS V14.01,2013-09-11 07:28:00,
2013-09-11 03:30:00,70.1,67.0,30.17,WSW,248,0.0,0.0,90,0.00,,---,0.00,VWS V14.01,2013-09-11 07:30:00,
2013-09-11 03:33:00,70.1,67.0,30.17,WSW,248,0.0,0.0,90,0.00,,---,0.00,VWS V14.01,2013-09-11 07:33:00,
2013-09-11 03:38:00,70.0,66.9,30.17,WSW,248,0.0,0.0,90,0.00,,---,0.00,VWS V14.01,2013-09-11 07:38:00,
2013-09-11 03:43:00,69.9,66.8,30.17,WSW,248,0.0,0.0,90,0.00,,---,0.00,VWS V14.01,2013-09-11 07:43:00,
2013-09-11 03:48:00,69.7,67.0,30.17,WSW,248,0.0,0.0,91,0.00,,---,0.00,VWS V14.01,2013-09-11 07:48:00,
2013-09-11 03:53:00,69.7,67.0,30.17,WSW,248,0.0,0.0,91,0.00,,---,0.00,VWS V14.01,2013-09-11 07:53:00,
2013-09-11 03:58:00,69.6,66.9,30.17,WSW,248,0.0,0.0,91,0.00,,---,0.00,VWS V14.01,2013-09-11 07:58:00,
2013-09-11 04:00:00,69.5,66.8,30.17,WSW,248,0.0,0.0,91,0.00,,---,0.00,VWS V14.01,2013-09-11 08:00:00,
2013-09-11 04:03:00,69.6,66.9,30.17,WSW,248,0.0,0.0,91,0.00,,---,0.00,VWS V14.01,2013-09-11 08:03:00,
2013-09-11 04:08:00,69.6,66.9,30.17,WSW,248,0.0,0.0,91,0.00,,---,0.00,VWS V14.01,2013-09-11 08:08:00,
2013-09-11 04:13:00,69.5,66.8,30.17,WSW,248,0.0,0.0,91,0.00,,---,0.00,VWS V14.01,2013-09-11 08:13:00,
2013-09-11 04:18:00,69.5,66.8,30.17,WSW,248,0.0,0.0,91,0.00,,---,0.00,VWS V14.01,2013-09-11 08:18:00,
2013-09-11 04:23:00,69.5,66.8,30.17,WSW,248,0.0,0.0,91,0.00,,---,0.00,VWS V14.01,2013-09-11 08:23:00,
2013-09-11 04:28:00,69.4,66.7,30.17,WSW,248,0.0,0.0,91,0.00,,---,0.00,VWS V14.01,2013-09-11 08:28:00,
2013-09-11 04:30:00,69.4,66.7,30.17,WSW,248,0.0,0.0,91,0.00,,---,0.00,VWS V14.01,2013-09-11 08:30:00,
2013-09-11 04:33:00,69.4,66.7,30.17,WSW,248,0.0,0.0,91,0.00,,---,0.00,VWS V14.01,2013-09-11 08:33:00,
2013-09-11 04:38:00,69.4,66.7,30.17,WSW,248,0.0,0.0,91,0.00,,---,0.00,VWS V14.01,2013-09-11 08:38:00,
2013-09-11 04:43:00,69.4,67.0,30.17,WSW,248,0.0,0.0,92,0.00,,---,0.00,VWS V14.01,2013-09-11 08:43:00,
2013-09-11 04:49:00,69.5,67.1,30.17,WSW,247,0.0,1.0,92,0.00,,---,0.00,VWS V14.01,2013-09-11 08:49:00,
2013-09-11 04:54:00,69.5,67.1,30.17,WSW,247,0.0,1.0,92,0.00,,---,0.00,VWS V14.01,2013-09-11 08:54:00,
2013-09-11 04:59:00,69.6,67.2,30.17,WSW,247,0.0,1.0,92,0.00,,---,0.00,VWS V14.01,2013-09-11 08:59:00,
2013-09-11 05:00:00,69.6,67.2,30.17,WSW,247,0.0,1.0,92,0.00,,---,0.00,VWS V14.01,2013-09-11 09:00:00,
2013-09-11 05:04:00,69.5,67.1,30.17,WSW,247,0.0,0.0,92,0.00,,---,0.00,VWS V14.01,2013-09-11 09:04:00,
2013-09-11 05:09:00,69.6,67.2,30.17,WSW,247,0.0,1.0,92,0.00,,---,0.00,VWS V14.01,2013-09-11 09:09:00,
2013-09-11 05:14:00,69.6,67.2,30.17,WSW,237,0.0,1.0,92,0.00,,---,0.00,VWS V14.01,2013-09-11 09:14:00,
2013-09-11 05:19:00,69.6,67.2,30.18,WSW,237,0.0,1.0,92,0.00,,---,0.00,VWS V14.01,2013-09-11 09:19:00,
2013-09-11 05:24:00,69.6,67.2,30.18,WSW,237,0.0,1.0,92,0.00,,---,0.00,VWS V14.01,2013-09-11 09:24:00,
2013-09-11 05:29:00,69.6,67.2,30.18,WSW,237,0.0,1.0,92,0.00,,---,0.00,VWS V14.01,2013-09-11 09:29:00,
2013-09-11 05:30:00,69.6,67.2,30.18,WSW,237,0.0,1.0,92,0.00,,---,0.00,VWS V14.01,2013-09-11 09:30:00,
2013-09-11 05:34:00,69.5,67.1,30.18,WSW,237,0.0,0.0,92,0.00,,---,0.00,VWS V14.01,2013-09-11 09:34:00,
2013-09-11 05:39:00,69.4,67.0,30.18,WSW,237,0.0,0.0,92,0.00,,---,0.00,VWS V14.01,2013-09-11 09:39:00,
2013-09-11 05:44:00,69.4,67.0,30.18,WSW,237,0.0,0.0,92,0.00,,---,0.00,VWS V14.01,2013-09-11 09:44:00,
2013-09-11 05:49:00,69.4,67.3,30.18,WSW,237,0.0,0.0,93,0.00,,---,0.00,VWS V14.01,2013-09-11 09:49:00,
2013-09-11 05:54:00,69.4,67.3,30.18,WSW,237,0.0,1.0,93,0.00,,---,0.00,VWS V14.01,2013-09-11 09:54:00,
2013-09-11 05:59:00,69.3,67.2,30.18,WSW,237,0.0,0.0,93,0.00,,---,0.00,VWS V14.01,2013-09-11 09:59:00,
2013-09-11 06:00:00,69.3,67.2,30.18,WSW,237,0.0,1.0,93,0.00,,---,0.00,VWS V14.01,2013-09-11 10:00:00,
2013-09-11 06:04:00,69.3,67.2,30.18,WSW,237,0.0,0.0,93,0.00,,---,0.00,VWS V14.01,2013-09-11 10:04:00,
2013-09-11 06:09:00,69.3,67.2,30.18,WSW,237,0.0,0.0,93,0.00,,---,0.00,VWS V14.01,2013-09-11 10:09:00,
2013-09-11 06:14:00,69.4,67.3,30.18,WSW,237,0.0,1.0,93,0.00,,---,0.00,VWS V14.01,2013-09-11 10:14:00,
2013-09-11 06:19:00,69.4,67.3,30.18,WSW,237,0.0,1.0,93,0.00,,---,0.00,VWS V14.01,2013-09-11 10:19:00,
2013-09-11 06:24:00,69.5,67.7,30.18,WSW,237,0.0,1.0,94,0.00,,---,0.00,VWS V14.01,2013-09-11 10:24:00,
2013-09-11 06:29:00,69.6,67.5,30.18,WSW,237,0.0,0.0,93,0.00,,---,0.00,VWS V14.01,2013-09-11 10:29:00,
2013-09-11 06:30:00,69.6,67.5,30.18,WSW,237,0.0,1.0,93,0.00,,---,0.00,VWS V14.01,2013-09-11 10:30:00,
2013-09-11 06:34:00,69.6,67.5,30.18,WSW,237,0.0,0.0,93,0.00,,---,0.00,VWS V14.01,2013-09-11 10:34:00,
2013-09-11 06:39:00,69.6,67.5,30.18,WSW,237,0.0,0.0,93,0.00,,---,0.00,VWS V14.01,2013-09-11 10:39:00,
2013-09-11 06:44:00,69.8,68.0,30.18,SW,236,0.0,1.0,94,0.00,,---,0.00,VWS V14.01,2013-09-11 10:44:00,
2013-09-11 06:49:00,70.0,68.2,30.18,SSE,165,0.0,1.0,94,0.00,,---,0.00,VWS V14.01,2013-09-11 10:49:00,
2013-09-11 06:54:00,70.0,67.9,30.19,SSE,165,0.0,1.0,93,0.00,,---,0.00,VWS V14.01,2013-09-11 10:54:00,
2013-09-11 06:59:00,69.9,67.8,30.19,SSE,165,0.0,0.0,93,0.00,,---,0.00,VWS V14.01,2013-09-11 10:59:00,
2013-09-11 07:00:00,69.9,67.8,30.19,SSE,165,0.0,1.0,93,0.00,,---,0.00,VWS V14.01,2013-09-11 11:00:00,
2013-09-11 07:04:00,69.8,67.7,30.19,SSE,165,0.0,0.0,93,0.00,,---,0.00,VWS V14.01,2013-09-11 11:04:00,
2013-09-11 07:09:00,69.8,67.7,30.19,SSE,165,0.0,1.0,93,0.00,,---,0.00,VWS V14.01,2013-09-11 11:09:00,
2013-09-11 07:14:00,69.7,67.6,30.19,SSE,165,0.0,1.0,93,0.00,,---,0.00,VWS V14.01,2013-09-11 11:14:00,
2013-09-11 07:19:00,69.6,67.5,30.19,SSE,165,0.0,1.0,93,0.00,,---,0.00,VWS V14.01,2013-09-11 11:19:00,
2013-09-11 07:24:00,69.6,67.5,30.19,SSE,165,0.0,1.0,93,0.00,,---,0.00,VWS V14.01,2013-09-11 11:24:00,
2013-09-11 07:29:00,69.6,67.5,30.19,SSE,165,0.0,0.0,93,0.00,,---,0.00,VWS V14.01,2013-09-11 11:29:00,
2013-09-11 07:30:00,69.6,67.5,30.19,SSE,165,0.0,1.0,93,0.00,,---,0.00,VWS V14.01,2013-09-11 11:30:00,
2013-09-11 07:34:00,69.6,67.5,30.19,SSE,165,0.0,0.0,93,0.00,,---,0.00,VWS V14.01,2013-09-11 11:34:00,
2013-09-11 07:39:00,69.6,67.8,30.19,SSE,165,0.0,0.0,94,0.00,,---,0.00,VWS V14.01,2013-09-11 11:39:00,
2013-09-11 07:44:00,69.7,67.9,30.20,SSE,165,0.0,0.0,94,0.00,,---,0.00,VWS V14.01,2013-09-11 11:44:00,
2013-09-11 07:49:00,69.8,68.0,30.20,SSE,165,0.0,1.0,94,0.00,,---,0.00,VWS V14.01,2013-09-11 11:49:00,
2013-09-11 07:54:00,69.9,67.8,30.20,SSE,165,0.0,1.0,93,0.00,,---,0.00,VWS V14.01,2013-09-11 11:54:00,
2013-09-11 07:59:00,70.0,67.9,30.20,SSE,165,0.0,0.0,93,0.00,,---,0.00,VWS V14.01,2013-09-11 11:59:00,
2013-09-11 08:00:00,70.0,68.2,30.20,SSE,165,0.0,1.0,94,0.00,,---,0.00,VWS V14.01,2013-09-11 12:00:00,
2013-09-11 08:04:00,70.0,68.2,30.20,SSE,165,0.0,1.0,94,0.00,,---,0.00,VWS V14.01,2013-09-11 12:04:00,
2013-09-11 08:09:00,70.1,68.3,30.20,SSE,165,0.0,1.0,94,0.00,,---,0.00,VWS V14.01,2013-09-11 12:09:00,
2013-09-11 08:14:00,70.2,68.4,30.20,SSE,165,0.0,1.0,94,0.00,,---,0.00,VWS V14.01,2013-09-11 12:14:00,
2013-09-11 08:19:00,70.2,68.4,30.20,SSE,165,0.0,1.0,94,0.00,,---,0.00,VWS V14.01,2013-09-11 12:19:00,
2013-09-11 08:24:00,70.3,68.5,30.20,SSE,165,0.0,1.0,94,0.00,,---,0.00,VWS V14.01,2013-09-11 12:24:00,
2013-09-11 08:29:00,70.4,68.3,30.20,SSE,165,0.0,0.0,93,0.00,,---,0.00,VWS V14.01,2013-09-11 12:29:00,
2013-09-11 08:30:00,70.4,68.3,30.20,SSE,165,0.0,1.0,93,0.00,,---,0.00,VWS V14.01,2013-09-11 12:30:00,
2013-09-11 08:34:00,70.6,68.8,30.20,SSE,165,0.0,0.0,94,0.00,,---,0.00,VWS V14.01,2013-09-11 12:34:00,
2013-09-11 08:39:00,70.8,68.7,30.20,SSE,165,0.0,0.0,93,0.00,,---,0.00,VWS V14.01,2013-09-11 12:39:00,
2013-09-11 08:44:00,70.9,68.8,30.20,SSE,165,0.0,1.0,93,0.00,,---,0.00,VWS V14.01,2013-09-11 12:44:00,
2013-09-11 08:49:00,71.0,68.9,30.20,SSE,165,0.0,1.0,93,0.00,,---,0.00,VWS V14.01,2013-09-11 12:49:00,
2013-09-11 08:54:00,71.3,69.2,30.20,SSE,165,0.0,1.0,93,0.00,,---,0.00,VWS V14.01,2013-09-11 12:54:00,
2013-09-11 08:59:00,71.5,69.4,30.20,SSE,165,0.0,0.0,93,0.00,,---,0.00,VWS V14.01,2013-09-11 12:59:00,
2013-09-11 09:00:00,71.5,69.4,30.21,SSE,165,0.0,1.0,93,0.00,,---,0.00,VWS V14.01,2013-09-11 13:00:00,
2013-09-11 09:04:00,71.7,69.6,30.20,SSE,165,0.0,1.0,93,0.00,,---,0.00,VWS V14.01,2013-09-11 13:04:00,
2013-09-11 09:09:00,72.1,70.0,30.20,SSE,165,0.0,1.0,93,0.00,,---,0.00,VWS V14.01,2013-09-11 13:09:00,
2013-09-11 09:14:00,72.6,70.5,30.20,SSE,165,0.0,1.0,93,0.00,,---,0.00,VWS V14.01,2013-09-11 13:14:00,
2013-09-11 09:19:00,73.0,70.5,30.20,SSE,165,0.0,1.0,92,0.00,,---,0.00,VWS V14.01,2013-09-11 13:19:00,
2013-09-11 09:24:00,73.3,70.8,30.20,SSE,165,0.0,1.0,92,0.00,,---,0.00,VWS V14.01,2013-09-11 13:24:00,
2013-09-11 09:29:00,73.8,71.3,30.20,SSE,165,0.0,0.0,92,0.00,,---,0.00,VWS V14.01,2013-09-11 13:29:00,
2013-09-11 09:30:00,73.7,71.2,30.20,SSE,165,0.0,1.0,92,0.00,,---,0.00,VWS V14.01,2013-09-11 13:30:00,
2013-09-11 09:34:00,74.1,71.3,30.20,SSE,165,0.0,0.0,91,0.00,,---,0.00,VWS V14.01,2013-09-11 13:34:00,
2013-09-11 09:39:00,74.4,71.6,30.20,SSE,165,0.0,1.0,91,0.00,,---,0.00,VWS V14.01,2013-09-11 13:39:00,
2013-09-11 09:44:00,74.7,71.6,30.20,SE,146,0.0,1.0,90,0.00,,---,0.00,VWS V14.01,2013-09-11 13:44:00,
2013-09-11 09:49:00,74.9,71.8,30.20,SE,136,0.0,1.0,90,0.00,,---,0.00,VWS V14.01,2013-09-11 13:49:00,
2013-09-11 09:54:00,75.1,72.0,30.20,SE,136,0.0,1.0,90,0.00,,---,0.00,VWS V14.01,2013-09-11 13:54:00,
2013-09-11 09:59:00,75.5,72.0,30.20,SE,144,0.0,0.0,89,0.00,,---,0.00,VWS V14.01,2013-09-11 13:59:00,
2013-09-11 10:00:00,75.5,72.0,30.20,SE,144,0.0,1.0,89,0.00,,---,0.00,VWS V14.01,2013-09-11 14:00:00,
2013-09-11 10:04:00,75.9,72.1,30.20,SE,144,0.0,1.0,88,0.00,,---,0.00,VWS V14.01,2013-09-11 14:04:00,
2013-09-11 10:09:00,76.5,72.7,30.20,SE,144,0.0,1.0,88,0.00,,---,0.00,VWS V14.01,2013-09-11 14:09:00,
2013-09-11 10:14:00,77.2,73.0,30.20,SE,146,0.0,3.0,87,0.00,,---,0.00,VWS V14.01,2013-09-11 14:14:00,
2013-09-11 10:19:00,78.0,73.5,30.20,SE,146,4.0,4.0,86,0.00,,---,0.00,VWS V14.01,2013-09-11 14:19:00,
2013-09-11 10:24:00,78.2,73.3,30.20,South,190,0.0,5.0,85,0.00,,---,0.00,VWS V14.01,2013-09-11 14:24:00,
2013-09-11 10:29:00,78.4,73.2,30.20,South,190,0.0,0.0,84,0.00,,---,0.00,VWS V14.01,2013-09-11 14:29:00,
2013-09-11 10:30:00,78.4,73.2,30.20,South,190,0.0,5.0,84,0.00,,---,0.00,VWS V14.01,2013-09-11 14:30:00,
2013-09-11 10:34:00,78.8,73.6,30.20,South,183,0.0,1.0,84,0.00,,---,0.00,VWS V14.01,2013-09-11 14:34:00,
2013-09-11 10:39:00,79.4,73.8,30.20,South,183,0.0,1.0,83,0.00,,---,0.00,VWS V14.01,2013-09-11 14:39:00,
2013-09-11 10:44:00,80.0,74.0,30.20,SSW,209,0.0,1.0,82,0.00,,---,0.00,VWS V14.01,2013-09-11 14:44:00,
2013-09-11 10:49:00,80.4,74.0,30.20,SSE,167,0.0,1.0,81,0.00,,---,0.00,VWS V14.01,2013-09-11 14:49:00,
2013-09-11 10:54:00,80.8,73.7,30.20,West,262,0.0,4.0,79,0.00,,---,0.00,VWS V14.01,2013-09-11 14:54:00,
2013-09-11 10:59:00,81.1,73.6,30.20,South,190,0.0,1.0,78,0.00,,---,0.00,VWS V14.01,2013-09-11 14:59:00,
2013-09-11 11:00:00,81.1,73.6,30.20,South,183,0.0,4.0,78,0.00,,---,0.00,VWS V14.01,2013-09-11 15:00:00,
2013-09-11 11:04:00,81.4,73.1,30.20,WSW,239,0.0,5.0,76,0.00,,---,0.00,VWS V14.01,2013-09-11 15:04:00,
2013-09-11 11:10:00,81.6,73.3,30.20,South,176,0.0,5.0,76,0.00,,---,0.00,VWS V14.01,2013-09-11 15:10:00,
2013-09-11 11:15:00,81.6,72.9,30.19,SE,140,0.0,5.0,75,0.00,,---,0.00,VWS V14.01,2013-09-11 15:15:00,
2013-09-11 11:20:00,82.3,72.8,30.19,SSE,161,0.0,5.0,73,0.00,,---,0.00,VWS V14.01,2013-09-11 15:20:00,
2013-09-11 11:25:00,82.5,71.7,30.19,South,178,0.0,9.0,70,0.00,,---,0.00,VWS V14.01,2013-09-11 15:25:00,
2013-09-11 11:30:00,82.6,71.4,30.19,South,173,0.0,10.0,69,0.00,,---,0.00,VWS V14.01,2013-09-11 15:30:00,
2013-09-11 11:35:00,82.4,71.2,30.19,SSE,165,0.0,10.0,69,0.00,,---,0.00,VWS V14.01,2013-09-11 15:35:00,
2013-09-11 11:40:00,82.3,72.0,30.19,SSE,162,3.0,10.0,71,0.00,,---,0.00,VWS V14.01,2013-09-11 15:40:00,
2013-09-11 11:45:00,82.2,72.3,30.19,SSE,160,0.0,10.0,72,0.00,,---,0.00,VWS V14.01,2013-09-11 15:45:00,
2013-09-11 11:50:00,82.3,72.0,30.19,SSW,192,4.0,10.0,71,0.00,,---,0.00,VWS V14.01,2013-09-11 15:50:00,
2013-09-11 11:55:00,82.5,71.7,30.19,South,178,0.0,10.0,70,0.00,,---,0.00,VWS V14.01,2013-09-11 15:55:00,
2013-09-11 12:00:00,82.7,71.9,30.19,SSE,151,0.0,9.0,70,0.00,,---,0.00,VWS V14.01,2013-09-11 16:00:00,
2013-09-11 12:05:00,82.5,71.7,30.19,SSE,163,0.0,9.0,70,0.00,,---,0.00,VWS V14.01,2013-09-11 16:05:00,
2013-09-11 12:10:00,82.6,72.2,30.19,SSE,164,4.0,9.0,71,0.00,,---,0.00,VWS V14.01,2013-09-11 16:10:00,
2013-09-11 12:15:00,82.6,71.4,30.19,South,178,3.0,9.0,69,0.00,,---,0.00,VWS V14.01,2013-09-11 16:15:00,
2013-09-11 12:20:00,82.7,70.6,30.19,South,178,0.0,9.0,67,0.00,,---,0.00,VWS V14.01,2013-09-11 16:20:00,
2013-09-11 12:25:00,82.5,70.9,30.19,SSE,164,0.0,9.0,68,0.00,,---,0.00,VWS V14.01,2013-09-11 16:25:00,
2013-09-11 12:30:00,82.5,70.9,30.18,SW,219,0.0,0.0,68,0.00,,---,0.00,VWS V14.01,2013-09-11 16:30:00,
2013-09-11 12:35:00,82.9,71.7,30.18,WSW,252,0.0,1.0,69,0.00,,---,0.00,VWS V14.01,2013-09-11 16:35:00,
2013-09-11 12:40:00,83.6,71.9,30.18,SSE,164,0.0,2.0,68,0.00,,---,0.00,VWS V14.01,2013-09-11 16:40:00,
2013-09-11 12:45:00,83.9,71.3,30.18,WSW,244,0.0,7.0,66,0.00,,---,0.00,VWS V14.01,2013-09-11 16:45:00,
2013-09-11 12:50:00,84.1,71.5,30.17,SSE,154,6.0,8.0,66,0.00,,---,0.00,VWS V14.01,2013-09-11 16:50:00,
2013-09-11 12:55:00,84.4,71.4,30.17,SE,146,0.0,8.0,65,0.00,,---,0.00,VWS V14.01,2013-09-11 16:55:00,
2013-09-11 13:00:00,84.5,71.4,30.17,SSE,155,0.0,6.0,65,0.00,,---,0.00,VWS V14.01,2013-09-11 17:00:00,
2013-09-11 13:05:00,84.5,71.0,30.17,SE,145,4.0,8.0,64,0.00,,---,0.00,VWS V14.01,2013-09-11 17:05:00,
2013-09-11 13:10:00,84.5,71.4,30.17,SSE,155,0.0,8.0,65,0.00,,---,0.00,VWS V14.01,2013-09-11 17:10:00,
2013-09-11 13:15:00,84.9,70.9,30.17,SSW,201,0.0,8.0,63,0.00,,---,0.00,VWS V14.01,2013-09-11 17:15:00,
2013-09-11 13:20:00,85.3,70.8,30.16,SE,140,0.0,9.0,62,0.00,,---,0.00,VWS V14.01,2013-09-11 17:20:00,
2013-09-11 13:25:00,85.5,70.5,30.16,SSW,198,0.0,9.0,61,0.00,,---,0.00,VWS V14.01,2013-09-11 17:25:00,
2013-09-11 13:30:00,86.0,69.0,30.16,SE,127,0.0,7.0,57,0.00,,---,0.00,VWS V14.01,2013-09-11 17:30:00,
2013-09-11 13:35:00,86.4,69.9,30.16,SE,138,3.0,7.0,58,0.00,,---,0.00,VWS V14.01,2013-09-11 17:35:00,
2013-09-11 13:40:00,86.4,68.3,30.16,SSE,167,0.0,9.0,55,0.00,,---,0.00,VWS V14.01,2013-09-11 17:40:00,
2013-09-11 13:45:00,86.4,67.8,30.16,South,190,5.0,9.0,54,0.00,,---,0.00,VWS V14.01,2013-09-11 17:45:00,
2013-09-11 13:50:00,86.5,66.8,30.16,South,173,0.0,9.0,52,0.00,,---,0.00,VWS V14.01,2013-09-11 17:50:00,
2013-09-11 13:55:00,86.7,66.4,30.15,South,173,3.0,10.0,51,0.00,,---,0.00,VWS V14.01,2013-09-11 17:55:00,
2013-09-11 14:00:00,86.9,66.0,30.15,SE,146,4.0,11.0,50,0.00,,---,0.00,VWS V14.01,2013-09-11 18:00:00,
2013-09-11 14:05:00,86.9,67.2,30.15,SSE,159,0.0,11.0,52,0.00,,---,0.00,VWS V14.01,2013-09-11 18:05:00,
2013-09-11 14:10:00,86.8,67.1,30.14,SSE,163,0.0,11.0,52,0.00,,---,0.00,VWS V14.01,2013-09-11 18:10:00,
2013-09-11 14:16:00,87.1,67.4,30.14,South,169,5.0,11.0,52,0.00,,---,0.00,VWS V14.01,2013-09-11 18:16:00,
2013-09-11 14:21:00,87.2,68.0,30.14,South,178,0.0,11.0,53,0.00,,---,0.00,VWS V14.01,2013-09-11 18:21:00,
2013-09-11 14:26:00,87.5,67.7,30.14,SE,130,0.0,11.0,52,0.00,,---,0.00,VWS V14.01,2013-09-11 18:26:00,
2013-09-11 14:30:00,87.3,67.5,30.14,WSW,252,1.0,11.0,52,0.00,,---,0.00,VWS V14.01,2013-09-11 18:30:00,
2013-09-11 14:31:00,87.3,67.5,30.14,ESE,117,4.0,12.0,52,0.00,,---,0.00,VWS V14.01,2013-09-11 18:31:00,
2013-09-11 14:36:00,86.8,67.6,30.14,South,180,1.0,12.0,53,0.00,,---,0.00,VWS V14.01,2013-09-11 18:36:00,
2013-09-11 14:41:00,86.1,68.1,30.14,WSW,246,0.0,12.0,55,0.00,,---,0.00,VWS V14.01,2013-09-11 18:41:00,
2013-09-11 14:46:00,86.0,68.5,30.13,West,277,0.0,12.0,56,0.00,,---,0.00,VWS V14.01,2013-09-11 18:46:00,
2013-09-11 14:51:00,86.6,68.0,30.13,NW,311,4.0,12.0,54,0.00,,---,0.00,VWS V14.01,2013-09-11 18:51:00,
2013-09-11 14:56:00,87.3,69.2,30.13,West,263,0.0,12.0,55,0.00,,---,0.00,VWS V14.01,2013-09-11 18:56:00,
2013-09-11 15:00:00,87.2,68.5,30.13,WNW,288,0.0,12.0,54,0.00,,---,0.00,VWS V14.01,2013-09-11 19:00:00,
2013-09-11 15:01:00,87.1,69.0,30.12,SSW,200,2.0,5.0,55,0.00,,---,0.00,VWS V14.01,2013-09-11 19:01:00,
2013-09-11 15:06:00,86.9,69.8,30.12,SW,220,0.0,5.0,57,0.00,,---,0.00,VWS V14.01,2013-09-11 19:06:00,
2013-09-11 15:11:00,87.2,69.6,30.12,West,261,0.0,5.0,56,0.00,,---,0.00,VWS V14.01,2013-09-11 19:11:00,
2013-09-11 15:16:00,87.2,69.6,30.12,SW,236,3.0,5.0,56,0.00,,---,0.00,VWS V14.01,2013-09-11 19:16:00,
2013-09-11 15:21:00,86.9,69.8,30.12,West,271,4.0,7.0,57,0.00,,---,0.00,VWS V14.01,2013-09-11 19:21:00,
2013-09-11 15:26:00,86.5,68.4,30.12,WSW,250,0.0,7.0,55,0.00,,---,0.00,VWS V14.01,2013-09-11 19:26:00,
2013-09-11 15:30:00,86.6,69.1,30.11,West,269,2.0,7.0,56,0.00,,---,0.00,VWS V14.01,2013-09-11 19:30:00,
2013-09-11 15:31:00,86.8,68.7,30.11,West,269,0.0,4.0,55,0.00,,---,0.00,VWS V14.01,2013-09-11 19:31:00,
2013-09-11 15:36:00,87.5,70.4,30.11,WNW,293,7.0,7.0,57,0.00,,---,0.00,VWS V14.01,2013-09-11 19:36:00,
2013-09-11 15:41:00,87.6,70.5,30.11,NW,310,5.0,8.0,57,0.00,,---,0.00,VWS V14.01,2013-09-11 19:41:00,
2013-09-11 15:46:00,87.8,71.2,30.11,WNW,294,0.0,8.0,58,0.00,,---,0.00,VWS V14.01,2013-09-11 19:46:00,
2013-09-11 15:51:00,87.2,69.6,30.11,West,269,0.0,8.0,56,0.00,,---,0.00,VWS V14.01,2013-09-11 19:51:00,
2013-09-11 15:56:00,87.0,69.9,30.11,West,270,6.0,8.0,57,0.00,,---,0.00,VWS V14.01,2013-09-11 19:56:00,
2013-09-11 16:00:00,86.9,69.3,30.11,West,272,0.0,8.0,56,0.00,,---,0.00,VWS V14.01,2013-09-11 20:00:00,
2013-09-11 16:01:00,86.8,69.8,30.11,West,278,0.0,6.0,57,0.00,,---,0.00,VWS V14.01,2013-09-11 20:01:00,
2013-09-11 16:06:00,86.8,69.8,30.11,SSW,207,0.0,6.0,57,0.00,,---,0.00,VWS V14.01,2013-09-11 20:06:00,
2013-09-11 16:11:00,87.3,69.2,30.11,WNW,282,3.0,6.0,55,0.00,,---,0.00,VWS V14.01,2013-09-11 20:11:00,
2013-09-11 16:16:00,87.0,69.4,30.11,WNW,296,1.0,7.0,56,0.00,,---,0.00,VWS V14.01,2013-09-11 20:16:00,
2013-09-11 16:21:00,87.0,69.9,30.11,WNW,286,5.0,9.0,57,0.00,,---,0.00,VWS V14.01,2013-09-11 20:21:00,
2013-09-11 16:26:00,86.6,70.1,30.11,NNW,330,6.0,9.0,58,0.00,,---,0.00,VWS V14.01,2013-09-11 20:26:00,
2013-09-11 16:30:00,86.5,70.0,30.11,West,277,0.0,9.0,58,0.00,,---,0.00,VWS V14.01,2013-09-11 20:30:00,
2013-09-11 16:31:00,86.4,69.9,30.11,West,269,3.0,7.0,58,0.00,,---,0.00,VWS V14.01,2013-09-11 20:31:00,
2013-09-11 16:36:00,85.9,69.9,30.11,NW,321,2.0,7.0,59,0.00,,---,0.00,VWS V14.01,2013-09-11 20:36:00,
2013-09-11 16:41:00,85.3,68.9,30.11,West,275,4.0,11.0,58,0.00,,---,0.00,VWS V14.01,2013-09-11 20:41:00,
2013-09-11 16:46:00,84.5,69.1,30.11,NW,304,1.0,11.0,60,0.00,,---,0.00,VWS V14.01,2013-09-11 20:46:00,
2013-09-11 16:51:00,84.1,69.2,30.11,WNW,290,0.0,11.0,61,0.00,,---,0.00,VWS V14.01,2013-09-11 20:51:00,
2013-09-11 16:56:00,83.8,69.9,30.11,WNW,290,1.0,11.0,63,0.00,,---,0.00,VWS V14.01,2013-09-11 20:56:00,
2013-09-11 17:00:00,83.7,69.8,30.11,NNW,344,0.0,11.0,63,0.00,,---,0.00,VWS V14.01,2013-09-11 21:00:00,
2013-09-11 17:01:00,83.8,69.4,30.11,NW,304,2.0,7.0,62,0.00,,---,0.00,VWS V14.01,2013-09-11 21:01:00,
2013-09-11 17:06:00,83.9,69.5,30.10,West,277,0.0,7.0,62,0.00,,---,0.00,VWS V14.01,2013-09-11 21:06:00,
2013-09-11 17:11:00,83.9,69.5,30.10,WNW,294,0.0,7.0,62,0.00,,---,0.00,VWS V14.01,2013-09-11 21:11:00,
2013-09-11 17:16:00,83.5,69.6,30.10,WNW,284,0.0,7.0,63,0.00,,---,0.00,VWS V14.01,2013-09-11 21:16:00,
2013-09-11 17:21:00,83.6,70.1,30.10,WNW,284,0.0,7.0,64,0.00,,---,0.00,VWS V14.01,2013-09-11 21:21:00,
2013-09-11 17:26:00,83.5,70.1,30.10,West,267,3.0,7.0,64,0.00,,---,0.00,VWS V14.01,2013-09-11 21:26:00,
2013-09-11 17:30:00,83.5,70.5,30.10,NW,318,0.0,7.0,65,0.00,,---,0.00,VWS V14.01,2013-09-11 21:30:00,
2013-09-11 17:31:00,83.6,70.1,30.10,NW,323,4.0,4.0,64,0.00,,---,0.00,VWS V14.01,2013-09-11 21:31:00,
2013-09-11 17:36:00,83.9,70.4,30.10,WNW,303,2.0,7.0,64,0.00,,---,0.00,VWS V14.01,2013-09-11 21:36:00,
2013-09-11 17:41:00,83.9,70.0,30.10,NW,317,2.0,8.0,63,0.00,,---,0.00,VWS V14.01,2013-09-11 21:41:00,
2013-09-11 17:46:00,84.0,70.1,30.10,NW,309,3.0,8.0,63,0.00,,---,0.00,VWS V14.01,2013-09-11 21:46:00,
2013-09-11 17:51:00,83.9,70.9,30.10,WNW,288,1.0,8.0,65,0.00,,---,0.00,VWS V14.01,2013-09-11 21:51:00,
2013-09-11 17:56:00,83.9,70.4,30.10,WNW,294,0.0,8.0,64,0.00,,---,0.00,VWS V14.01,2013-09-11 21:56:00,
2013-09-11 18:00:00,83.8,69.9,30.10,WNW,284,0.0,8.0,63,0.00,,---,0.00,VWS V14.01,2013-09-11 22:00:00,
2013-09-11 18:01:00,83.9,70.9,30.10,NW,306,6.0,7.0,65,0.00,,---,0.00,VWS V14.01,2013-09-11 22:01:00,
2013-09-11 18:06:00,83.9,70.9,30.10,WSW,243,6.0,7.0,65,0.00,,---,0.00,VWS V14.01,2013-09-11 22:06:00,
2013-09-11 18:11:00,83.4,70.4,30.10,WNW,298,2.0,9.0,65,0.00,,---,0.00,VWS V14.01,2013-09-11 22:11:00,
2013-09-11 18:16:00,83.2,71.1,30.10,WSW,246,0.0,9.0,67,0.00,,---,0.00,VWS V14.01,2013-09-11 22:16:00,
2013-09-11 18:21:00,83.1,71.0,30.10,NW,321,3.0,9.0,67,0.00,,---,0.00,VWS V14.01,2013-09-11 22:21:00,
2013-09-11 18:26:00,82.8,70.7,30.10,West,267,1.0,9.0,67,0.00,,---,0.00,VWS V14.01,2013-09-11 22:26:00,
2013-09-11 18:30:00,82.7,71.1,30.09,NNW,342,0.0,9.0,68,0.00,,---,0.00,VWS V14.01,2013-09-11 22:30:00,
2013-09-11 18:31:00,82.6,71.0,30.09,NW,307,3.0,5.0,68,0.00,,---,0.00,VWS V14.01,2013-09-11 22:31:00,
2013-09-11 18:36:00,82.3,70.7,30.09,WNW,288,0.0,5.0,68,0.00,,---,0.00,VWS V14.01,2013-09-11 22:36:00,
2013-09-11 18:41:00,82.0,70.4,30.09,WNW,286,5.0,6.0,68,0.00,,---,0.00,VWS V14.01,2013-09-11 22:41:00,
2013-09-11 18:46:00,81.8,70.6,30.09,WNW,296,3.0,6.0,69,0.00,,---,0.00,VWS V14.01,2013-09-11 22:46:00,
2013-09-11 18:51:00,81.6,70.9,30.09,West,275,0.0,6.0,70,0.00,,---,0.00,VWS V14.01,2013-09-11 22:51:00,
2013-09-11 18:57:00,81.4,71.1,30.09,WNW,284,0.0,6.0,71,0.00,,---,0.00,VWS V14.01,2013-09-11 22:57:00,
2013-09-11 19:00:00,81.4,71.1,30.09,WNW,284,0.0,6.0,71,0.00,,---,0.00,VWS V14.01,2013-09-11 23:00:00,
2013-09-11 19:01:00,81.2,70.9,30.09,WNW,284,0.0,3.0,71,0.00,,---,0.00,VWS V14.01,2013-09-11 23:01:00,
2013-09-11 19:07:00,80.9,71.0,30.09,West,274,0.0,3.0,72,0.00,,---,0.00,VWS V14.01,2013-09-11 23:07:00,
2013-09-11 19:12:00,80.6,71.2,30.09,West,274,0.0,3.0,73,0.00,,---,0.00,VWS V14.01,2013-09-11 23:12:00,
2013-09-11 19:17:00,80.3,71.3,30.09,West,277,0.0,3.0,74,0.00,,---,0.00,VWS V14.01,2013-09-11 23:17:00,
2013-09-11 19:22:00,80.0,71.0,30.09,West,277,0.0,3.0,74,0.00,,---,0.00,VWS V14.01,2013-09-11 23:22:00,
2013-09-11 19:27:00,79.7,71.1,30.09,West,277,0.0,3.0,75,0.00,,---,0.00,VWS V14.01,2013-09-11 23:27:00,
2013-09-11 19:30:00,79.5,70.9,30.09,West,277,0.0,3.0,75,0.00,,---,0.00,VWS V14.01,2013-09-11 23:30:00,
2013-09-11 19:32:00,79.4,71.2,30.09,West,279,0.0,2.0,76,0.00,,---,0.00,VWS V14.01,2013-09-11 23:32:00,
2013-09-11 19:37:00,79.1,70.9,30.09,West,279,0.0,2.0,76,0.00,,---,0.00,VWS V14.01,2013-09-11 23:37:00,
2013-09-11 19:42:00,78.9,71.1,30.09,West,271,0.0,2.0,77,0.00,,---,0.00,VWS V14.01,2013-09-11 23:42:00,
2013-09-11 19:47:00,78.7,70.9,30.09,West,271,0.0,2.0,77,0.00,,---,0.00,VWS V14.01,2013-09-11 23:47:00,
2013-09-11 19:52:00,78.5,71.1,30.09,West,271,0.0,2.0,78,0.00,,---,0.00,VWS V14.01,2013-09-11 23:52:00,
2013-09-11 19:57:00,78.2,70.8,30.10,West,271,0.0,2.0,78,0.00,,---,0.00,VWS V14.01,2013-09-11 23:57:00,
2013-09-11 20:00:00,78.2,70.8,30.10,West,271,0.0,2.0,78,0.00,,---,0.00,VWS V14.01,2013-09-12 00:00:00,
2013-09-11 20:02:00,78.0,71.0,30.10,West,271,0.0,0.0,79,0.00,,---,0.00,VWS V14.01,2013-09-12 00:02:00,
2013-09-11 20:07:00,77.8,70.8,30.10,West,271,0.0,0.0,79,0.00,,---,0.00,VWS V14.01,2013-09-12 00:07:00,
2013-09-11 20:12:00,77.6,70.9,30.10,West,271,0.0,0.0,80,0.00,,---,0.00,VWS V14.01,2013-09-12 00:12:00,
2013-09-11 20:17:00,77.4,70.8,30.10,West,271,0.0,0.0,80,0.00,,---,0.00,VWS V14.01,2013-09-12 00:17:00,
2013-09-11 20:22:00,77.2,70.6,30.10,West,271,0.0,0.0,80,0.00,,---,0.00,VWS V14.01,2013-09-12 00:22:00,
2013-09-11 20:27:00,76.9,70.6,30.10,West,271,0.0,0.0,81,0.00,,---,0.00,VWS V14.01,2013-09-12 00:27:00,
2013-09-11 20:30:00,76.9,70.6,30.10,West,271,0.0,0.0,81,0.00,,---,0.00,VWS V14.01,2013-09-12 00:30:00,
2013-09-11 20:32:00,76.6,70.7,30.10,West,271,0.0,0.0,82,0.00,,---,0.00,VWS V14.01,2013-09-12 00:32:00,
2013-09-11 20:37:00,76.2,70.7,30.11,West,271,0.0,0.0,83,0.00,,---,0.00,VWS V14.01,2013-09-12 00:37:00,
2013-09-11 20:42:00,75.9,70.4,30.11,West,271,0.0,0.0,83,0.00,,---,0.00,VWS V14.01,2013-09-12 00:42:00,
2013-09-11 20:47:00,75.7,70.5,30.11,West,271,0.0,0.0,84,0.00,,---,0.00,VWS V14.01,2013-09-12 00:47:00,
2013-09-11 20:52:00,75.5,70.3,30.11,West,271,0.0,0.0,84,0.00,,---,0.00,VWS V14.01,2013-09-12 00:52:00,
2013-09-11 20:57:00,75.3,70.1,30.11,West,271,0.0,0.0,84,0.00,,---,0.00,VWS V14.01,2013-09-12 00:57:00,
2013-09-11 21:00:00,75.2,70.0,30.11,West,271,0.0,0.0,84,0.00,,---,0.00,VWS V14.01,2013-09-12 01:00:00,
2013-09-11 21:02:00,75.1,70.3,30.10,West,271,0.0,0.0,85,0.00,,---,0.00,VWS V14.01,2013-09-12 01:02:00,
2013-09-11 21:07:00,74.9,70.1,30.11,West,271,0.0,0.0,85,0.00,,---,0.00,VWS V14.01,2013-09-12 01:07:00,
2013-09-11 21:12:00,74.8,70.0,30.11,West,271,0.0,0.0,85,0.00,,---,0.00,VWS V14.01,2013-09-12 01:12:00,
2013-09-11 21:17:00,74.7,70.2,30.11,West,271,0.0,0.0,86,0.00,,---,0.00,VWS V14.01,2013-09-12 01:17:00,
2013-09-11 21:22:00,74.7,70.2,30.11,West,271,0.0,0.0,86,0.00,,---,0.00,VWS V14.01,2013-09-12 01:22:00,
2013-09-11 21:27:00,74.7,70.2,30.11,West,271,0.0,0.0,86,0.00,,---,0.00,VWS V14.01,2013-09-12 01:27:00,
2013-09-11 21:30:00,74.7,70.2,30.11,West,271,0.0,0.0,86,0.00,,---,0.00,VWS V14.01,2013-09-12 01:30:00,
2013-09-11 21:32:00,74.7,70.2,30.11,West,271,0.0,0.0,86,0.00,,---,0.00,VWS V14.01,2013-09-12 01:32:00,
2013-09-11 21:37:00,74.7,70.2,30.10,West,271,0.0,0.0,86,0.00,,---,0.00,VWS V14.01,2013-09-12 01:37:00,
2013-09-11 21:42:00,74.7,70.2,30.11,West,271,0.0,0.0,86,0.00,,---,0.00,VWS V14.01,2013-09-12 01:42:00,
2013-09-11 21:47:00,74.7,70.2,30.11,West,271,0.0,0.0,86,0.00,,---,0.00,VWS V14.01,2013-09-12 01:47:00,
2013-09-11 21:52:00,74.7,70.2,30.11,West,271,0.0,0.0,86,0.00,,---,0.00,VWS V14.01,2013-09-12 01:52:00,
2013-09-11 21:57:00,74.7,70.2,30.11,West,271,0.0,0.0,86,0.00,,---,0.00,VWS V14.01,2013-09-12 01:57:00,
2013-09-11 22:00:00,73.6,69.8,30.11,West,271,0.0,0.0,88,0.00,,---,0.00,VWS V14.01,2013-09-12 02:00:00,
2013-09-11 22:02:00,73.7,69.9,30.11,West,271,0.0,0.0,88,0.00,,---,0.00,VWS V14.01,2013-09-12 02:02:00,
2013-09-11 22:07:00,73.7,69.9,30.10,West,271,0.0,0.0,88,0.00,,---,0.00,VWS V14.01,2013-09-12 02:07:00,
2013-09-11 22:13:00,73.7,69.9,30.11,West,271,0.0,0.0,88,0.00,,---,0.00,VWS V14.01,2013-09-12 02:13:00,
2013-09-11 22:18:00,73.6,69.8,30.11,West,271,0.0,0.0,88,0.00,,---,0.00,VWS V14.01,2013-09-12 02:18:00,
2013-09-11 22:23:00,73.4,69.6,30.11,West,271,0.0,0.0,88,0.00,,---,0.00,VWS V14.01,2013-09-12 02:23:00,
2013-09-11 22:28:00,73.2,69.4,30.11,West,271,0.0,0.0,88,0.00,,---,0.00,VWS V14.01,2013-09-12 02:28:00,
2013-09-11 22:30:00,73.2,69.4,30.11,West,271,0.0,0.0,88,0.00,,---,0.00,VWS V14.01,2013-09-12 02:30:00,
2013-09-11 22:33:00,73.1,69.3,30.11,West,271,0.0,0.0,88,0.00,,---,0.00,VWS V14.01,2013-09-12 02:33:00,
2013-09-11 22:38:00,72.9,69.5,30.11,West,271,0.0,0.0,89,0.00,,---,0.00,VWS V14.01,2013-09-12 02:38:00,
2013-09-11 22:43:00,72.6,69.2,30.10,West,271,0.0,0.0,89,0.00,,---,0.00,VWS V14.01,2013-09-12 02:43:00,
2013-09-11 22:48:00,72.4,69.0,30.10,West,271,0.0,0.0,89,0.00,,---,0.00,VWS V14.01,2013-09-12 02:48:00,
2013-09-11 22:53:00,72.3,68.9,30.10,West,271,0.0,0.0,89,0.00,,---,0.00,VWS V14.01,2013-09-12 02:53:00,
2013-09-11 22:58:00,72.1,69.0,30.10,West,271,0.0,0.0,90,0.00,,---,0.00,VWS V14.01,2013-09-12 02:58:00,
2013-09-11 23:00:00,72.1,69.0,30.10,West,271,0.0,0.0,90,0.00,,---,0.00,VWS V14.01,2013-09-12 03:00:00,
2013-09-11 23:03:00,72.1,69.0,30.10,West,271,0.0,0.0,90,0.00,,---,0.00,VWS V14.01,2013-09-12 03:03:00,
2013-09-11 23:08:00,72.0,68.9,30.10,West,271,0.0,0.0,90,0.00,,---,0.00,VWS V14.01,2013-09-12 03:08:00,
2013-09-11 23:13:00,72.0,68.9,30.10,West,271,0.0,0.0,90,0.00,,---,0.00,VWS V14.01,2013-09-12 03:13:00,
2013-09-11 23:18:00,72.0,68.9,30.10,West,271,0.0,0.0,90,0.00,,---,0.00,VWS V14.01,2013-09-12 03:18:00,
2013-09-11 23:23:00,71.8,68.7,30.10,West,271,0.0,0.0,90,0.00,,---,0.00,VWS V14.01,2013-09-12 03:23:00,
2013-09-11 23:28:00,71.6,68.5,30.10,West,271,0.0,0.0,90,0.00,,---,0.00,VWS V14.01,2013-09-12 03:28:00,
2013-09-11 23:30:00,71.6,68.5,30.10,West,271,0.0,0.0,90,0.00,,---,0.00,VWS V14.01,2013-09-12 03:30:00,
2013-09-11 23:33:00,71.5,68.7,30.10,West,271,0.0,0.0,91,0.00,,---,0.00,VWS V14.01,2013-09-12 03:33:00,
2013-09-11 23:38:00,71.3,68.5,30.10,West,271,0.0,0.0,91,0.00,,---,0.00,VWS V14.01,2013-09-12 03:38:00,
2013-09-11 23:43:00,71.2,68.4,30.10,West,271,0.0,0.0,91,0.00,,---,0.00,VWS V14.01,2013-09-12 03:43:00,
2013-09-11 23:48:00,71.0,68.2,30.10,West,271,0.0,0.0,91,0.00,,---,0.00,VWS V14.01,2013-09-12 03:48:00,
2013-09-11 23:53:00,70.9,68.2,30.10,West,271,0.0,0.0,91,0.00,,---,0.00,VWS V14.01,2013-09-12 03:53:00,
2013-09-11 23:58:00,70.8,68.1,30.10,West,271,0.0,0.0,91,0.00,,---,0.00,VWS V14.01,2013-09-12 03:58:00,